Location: Unspecified
(0.0000°N, 0.0000°E)
Time: 11:30:04
(UTC+00:00)

Vanguard 1 Rocket - Pass Details

Date: 24 November 2019
Orbit: 650 x 4226 km, 34.3° (Epoch: 07 December)

Event Time Altitude Azimuth Distance (km) Brightness Sun altitude
Rises 20:37:43 0° 230° (SW) 8,168 13.1 -39.4°
Reaches altitude 10° 20:44:00 10° 228° (SW) 6,790 12.4 -40.8°
Enters shadow 21:03:18 71° 167° (SSE) 2,487 9.3 -45.1°
Maximum altitude 21:04:05 72° 146° (SE) 2,407 - -45.2°
Drops below altitude 10° 21:14:02 10° 63° (ENE) 3,648 - -47.4°
Sets 21:16:20 0° 60° (ENE) 4,324 - -47.9°
